Regional Weather Roundup
Issued by NWS

Home | Current Version | Previous Version | Graphics & Text | Print | Product List | Glossary On
Versions: 1 2 3 4 5 6 7 8 9 10 11 12 13 14 15 16 17 18 19 20 21 22 23 24 25 26 27 28 29 30 31 32 33 34 35 36 37 38 39 40 41 42 43 44 45 46 47 48 49 50
000
ASUS43 KBIS 151110
RWRND

NORTH DAKOTA REGIONAL WEATHER ROUNDUP
NATIONAL WEATHER SERVICE BISMARCK ND
500 AM CST SUN JAN 15 2017

NOTE: "FAIR" INDICATES FEW OR NO CLOUDS BELOW 12,000 FEET WITH NO
SIGNIFICANT WEATHER AND/OR OBSTRUCTIONS TO VISIBILITY.


NDZ001>003-009>011-017-151200-
NORTHWEST NORTH DAKOTA

CITY           SKY/WX    TMP DP  RH WIND       PRES   REMARKS
WILLISTON      FAIR      -2  -6  83 S5        30.12F WCI -12
MINOT          FAIR      12   3  67 SW20      30.08F WCI  -6
$$

NDZ018>021-031>035-040>046-151200-
SOUTHWEST NORTH DAKOTA

CITY           SKY/WX    TMP DP  RH WIND       PRES   REMARKS
BISMARCK       FAIR      -9 -15  75 N3        30.21F
DICKINSON      FAIR      12   2  64 SW9       30.10F WCI   0
GARRISON         N/A     -4  -9  79 CALM      30.13F
HETTINGER ARPT CLOUDY     4  -1  80 NW6       30.16S WCI  -7
$$

NDZ004>008-012>016-024-026-027-054-151200-
NORTHEAST NORTH DAKOTA

CITY           SKY/WX    TMP DP  RH WIND       PRES   REMARKS
GRAND FORKS    CLOUDY     0  -6  76 S16       30.19F WCI -20
GRND FRKS AFB  CLOUDY     0  -6  76 SW9       30.18F WCI -16
DEVILS LAKE    FAIR       4  -1  80 SW15      30.12F WCI -14
$$

NDZ022-023-025-028>030-036>039-047>053-151200-
SOUTHEAST NORTH DAKOTA

CITY           SKY/WX    TMP DP  RH WIND       PRES   REMARKS
FARGO          CLOUDY     7   1  76 S9        30.26F WCI  -7
JAMESTOWN      FAIR       6   1  80 SW7       30.17F WCI  -6
$$





USA.gov is the U.S. government's official web portal to all federal, state and local government web resources and services.